Date String (YYYY-MM-DD hh:mm:ss) UTC,Instrument flags,Ambient pressure (hPa),Sample flow (lpm),Bypass flow (lpm),Sample temperature (°C),Ambient temperature (°C),ASC tube jacket temperature (°C),LED temperature (°C),Box temperature (°C),Sample RH (%),Span deviation,Mass concentration (μg/m³),Mass concentration (μg/m³),Mass concentration (μg/m³)
DateTimeUTC,F1_M11,P_M11,Q1_M11,Q2_M11,T1_M11,T2_M11,T3_M11,T4_M11,T5_M11,U1_M11,ZSPAN_M11,X0_M11,X2_M11,X1_M11
2022-10-19 19:00:00,,0831.7,5.01,0.00,29.9,28.5,00.0,38.8,31.8,07.6,0000.0,0008.12,0002.19,0001.14
2022-10-19 19:01:00,,0831.7,4.99,0.00,29.9,28.6,00.0,38.8,31.8,07.6,0000.0,0007.94,0002.05,0001.11
2022-10-19 19:02:00,,0831.7,5.00,0.00,29.9,28.7,00.0,38.8,31.8,07.9,0000.0,0008.21,0002.04,0001.10
2022-10-19 19:03:00,,0831.7,5.01,0.00,30.0,28.7,00.0,38.8,31.8,07.4,0000.0,0008.58,0001.99,0001.07
2022-10-19 19:04:00,,0831.7,5.00,0.00,30.0,28.8,00.0,38.8,31.9,07.4,0000.0,0008.55,0002.01,0001.04
2022-10-19 19:05:00,,0831.7,5.00,0.00,30.0,28.9,00.0,38.8,31.9,07.1,0000.0,0008.17,0001.93,0001.01
2022-10-19 19:06:00,,0831.7,5.00,0.00,30.0,28.9,00.0,38.8,31.9,07.3,0000.0,0008.05,0001.92,0000.97
2022-10-19 19:07:00,,0831.7,5.00,0.00,30.1,29.0,00.0,38.8,32.0,07.4,0000.0,0007.45,0001.92,0000.93
2022-10-19 19:08:00,,0831.6,5.01,0.00,30.1,29.1,00.0,38.9,32.0,07.5,0000.0,0008.04,0001.90,0000.92
2022-10-19 19:09:00,,0831.6,4.99,0.00,30.1,29.1,00.0,38.9,32.0,07.2,0000.0,0009.73,0001.87,0000.89
2022-10-19 19:10:00,,0831.6,5.01,0.00,30.2,28.2,00.0,38.9,32.0,07.1,0000.0,0009.97,0001.76,0000.85
2022-10-19 19:11:00,,0831.5,4.98,0.00,30.1,26.8,00.0,38.8,31.9,06.9,0000.0,0009.73,0001.75,0000.83
2022-10-19 19:12:00,,0831.6,5.01,0.00,30.1,26.5,00.0,38.7,31.8,07.3,0000.0,0009.66,0001.75,0000.82
2022-10-19 19:13:00,,0831.5,5.01,0.00,30.0,26.7,00.0,38.7,31.7,07.4,0000.0,0009.56,0001.71,0000.81
2022-10-19 19:14:00,,0831.5,5.01,0.00,29.9,27.0,00.0,38.7,31.6,07.4,0000.0,0009.51,0001.76,0000.80
2022-10-19 19:15:00,,0831.5,5.02,0.00,29.9,27.4,00.0,38.7,31.6,07.3,0000.0,0009.67,0001.67,0000.80
2022-10-19 19:16:00,,0831.4,5.03,0.00,29.9,27.7,00.0,38.7,31.6,07.2,0000.0,0009.81,0001.68,0000.80
2022-10-19 19:17:00,,0831.5,5.00,0.00,29.8,27.9,00.0,38.7,31.6,07.5,0000.0,0009.74,0001.66,0000.81
2022-10-19 19:18:00,,0831.4,5.00,0.00,29.8,28.1,00.0,38.7,31.7,07.3,0000.0,0009.88,0001.60,0000.80
2022-10-19 19:19:00,,0831.5,5.02,0.00,29.8,28.3,00.0,38.7,31.7,07.0,0000.0,0009.98,0001.59,0000.79
2022-10-19 19:20:00,,0831.5,4.98,0.00,29.9,28.4,00.0,38.7,31.7,07.1,0000.0,0008.42,0001.56,0000.78
2022-10-19 19:21:00,,0831.4,5.01,0.00,29.9,28.5,00.0,38.7,31.7,07.3,0000.0,0008.69,0001.57,0000.78
2022-10-19 19:22:00,,0831.4,5.01,0.00,29.9,28.6,00.0,38.7,31.8,07.2,0000.0,0008.46,0001.55,0000.79
2022-10-19 19:23:00,,0831.4,5.00,0.00,29.9,28.7,00.0,38.7,31.8,07.0,0000.0,0009.38,0001.56,0000.78
2022-10-19 19:24:00,,0831.4,4.99,0.00,29.9,28.8,00.0,38.7,31.8,07.1,0000.0,0009.18,0001.54,0000.76
2022-10-19 19:25:00,,0831.3,5.01,0.00,30.0,28.8,00.0,38.7,31.9,07.0,0000.0,0008.72,0001.46,0000.75
2022-10-19 19:26:00,,0831.3,5.01,0.00,30.0,28.9,00.0,38.8,31.9,07.0,0000.0,0008.50,0001.43,0000.72
2022-10-19 19:27:00,,0831.3,5.00,0.00,30.0,29.0,00.0,38.8,31.9,07.4,0000.0,0008.87,0001.40,0000.71
2022-10-19 19:28:00,,0831.2,5.00,0.00,30.0,29.0,00.0,38.8,32.0,07.3,0000.0,0009.25,0001.40,0000.71
2022-10-19 19:29:00,,0831.2,4.98,0.00,30.1,28.9,00.0,38.8,32.0,07.2,0000.0,0009.36,0001.43,0000.71
2022-10-19 19:30:00,,0831.2,5.00,0.00,30.1,27.8,00.0,38.8,32.0,07.1,0000.0,0008.74,0001.45,0000.72
2022-10-19 19:31:00,,0831.2,5.00,0.00,30.1,27.2,00.0,38.7,31.9,07.0,0000.0,0008.65,0001.44,0000.72
2022-10-19 19:32:00,,0831.2,5.01,0.00,30.0,27.3,00.0,38.7,31.8,06.9,0000.0,0007.97,0001.42,0000.71
2022-10-19 19:33:00,,0831.2,5.01,0.00,30.0,27.5,00.0,38.7,31.6,07.0,0000.0,0007.24,0001.39,0000.70
2022-10-19 19:34:00,,0831.2,4.99,0.00,29.9,27.7,00.0,38.7,31.7,06.9,0000.0,0006.60,0001.40,0000.70
2022-10-19 19:35:00,,0831.2,4.99,0.00,29.9,28.0,00.0,38.7,31.7,07.0,0000.0,0007.19,0001.40,0000.70
2022-10-19 19:36:00,,0831.2,5.01,0.00,29.9,28.2,00.0,38.7,31.7,07.1,0000.0,0007.06,0001.38,0000.70
2022-10-19 19:37:00,,0831.2,5.00,0.00,29.9,28.4,00.0,38.7,31.7,07.0,0000.0,0007.09,0001.34,0000.70
2022-10-19 19:38:00,,0831.2,5.00,0.00,30.0,28.5,00.0,38.7,31.7,07.1,0000.0,0006.74,0001.31,0000.71
2022-10-19 19:39:00,,0831.2,5.00,0.00,30.0,28.6,00.0,38.7,31.8,07.2,0000.0,0005.85,0001.28,0000.70
2022-10-19 19:40:00,,0831.1,4.99,0.00,30.0,28.8,00.0,38.8,31.9,07.1,0000.0,0005.17,0001.19,0000.69
2022-10-19 19:41:00,,0831.1,5.00,0.00,30.0,28.8,00.0,38.8,31.9,07.3,0000.0,0005.15,0001.15,0000.69
2022-10-19 19:42:00,,0831.2,5.00,0.00,30.1,28.6,00.0,38.8,31.9,07.1,0000.0,0004.96,0001.12,0000.69
2022-10-19 19:43:00,,0831.1,5.01,0.00,30.1,27.2,00.0,38.7,31.8,07.1,0000.0,0005.06,0001.14,0000.69
2022-10-19 19:44:00,,0831.0,4.99,0.00,30.0,26.2,00.0,38.7,31.6,07.1,0000.0,0005.21,0001.15,0000.69
2022-10-19 19:45:00,,0831.0,5.00,0.00,29.9,26.4,00.0,38.6,31.6,07.1,0000.0,0005.33,0001.15,0000.69
2022-10-19 19:46:00,,0831.0,5.00,0.00,29.8,26.7,00.0,38.6,31.5,07.1,0000.0,0004.90,0001.18,0000.68
2022-10-19 19:47:00,,0831.0,5.00,0.00,29.8,27.0,00.0,38.6,31.4,07.3,0000.0,0005.76,0001.18,0000.69
2022-10-19 19:48:00,,0831.1,5.01,0.00,29.7,27.3,00.0,38.6,31.4,07.3,0000.0,0005.60,0001.18,0000.69
2022-10-19 19:49:00,,0831.0,4.99,0.00,29.7,27.7,00.0,38.6,31.5,07.2,0000.0,0004.61,0001.19,0000.69
2022-10-19 19:50:00,,0831.0,5.00,0.00,29.7,27.9,00.0,38.6,31.5,07.3,0000.0,0004.67,0001.21,0000.69
2022-10-19 19:51:00,,0831.1,5.01,0.00,29.7,28.1,00.0,38.6,31.5,07.3,0000.0,0004.75,0001.24,0000.69
2022-10-19 19:52:00,,0831.1,4.99,0.00,29.8,28.3,00.0,38.6,31.6,07.3,0000.0,0005.81,0001.23,0000.70
2022-10-19 19:53:00,,0831.0,4.99,0.00,29.8,28.4,00.0,38.6,31.7,07.3,0000.0,0007.26,0001.26,0000.70
2022-10-19 19:54:00,,0831.0,5.00,0.00,29.8,28.5,00.0,38.6,31.7,07.4,0000.0,0007.63,0001.36,0000.72
2022-10-19 19:55:00,,0831.0,5.01,0.00,29.8,28.6,00.0,38.6,31.8,07.6,0000.0,0007.89,0001.43,0000.73
2022-10-19 19:56:00,,0831.0,5.01,0.00,29.9,28.7,00.0,38.6,31.7,07.5,0000.0,0007.67,0001.44,0000.75
2022-10-19 19:57:00,,0831.0,5.00,0.00,29.9,28.8,00.0,38.6,31.8,07.6,0000.0,0007.95,0001.48,0000.76
2022-10-19 19:58:00,,0831.0,4.99,0.00,29.9,28.9,00.0,38.7,31.8,07.6,0000.0,0007.56,0001.54,0000.78
2022-10-19 19:59:00,,0831.0,4.99,0.00,30.0,28.7,00.0,38.7,31.9,07.5,0000.0,0008.13,0001.60,0000.80
